C/2018 A3 ( ATLAS )

Japanese version
Home page
Updated on November 25, 2018

---------------------------------------------------------------------

* Profile

Discovery Date January 10, 2018
Magnitude 18.7 mag
Discoverer Asteroid Terrestrial-impact Last Alert System (ATLAS) search program

* Pictures

* Orbital Elements

Epoch 2018 Dec. 28.0 TT = JDT 2458480.5
T 2019 Jan. 12.85799 TT                                 MPCW
q   3.2767693            (2000.0)            P               Q
z  +0.0020034      Peri.   86.42487     -0.24779483     +0.95551158
 +/-0.0000011      Node   194.27954     +0.40379295     +0.25196948
e   0.9934352      Incl.  139.56194     +0.88065258     +0.15332645
From 678 observations 2018 Jan. 10-Oct. 13, mean residual 0".4.

* Finding Charts

* Magnitudes Graph

        m1 = 8.0 + 5 log d + 10.0 log r

---------------------------------------------------------------------

The orbital elements are published on M.P.E.C. 2018-U70.
The charts are made with StellaNavigator Ver.10 (AstroArts).
The magnitudes graphs are made with Comet for Windows.

---------------------------------------------------------------------

Copyright(C) Seiichi Yoshida (comet@aerith.net). All rights reserved.